Location: Chemnitz
(49.5500°N, 11.5830°E)
Time: 11:02:01
(UTC+01:00)

ISS - Pass Details

Date: 11 February 2018
Orbit: 403 x 407 km, 51.6° (Epoch: 20 February)

Event Time Altitude Azimuth Distance (km) Brightness Sun altitude
Rises 19:24:52 0° 281° (W) 2,321 1.6 -19.7°
Reaches altitude 10° 19:27:55 10° 249° (WSW) 1,457 0.0 -20.2°
Maximum altitude 19:29:18 12° 224° (SW) 1,326 -0.7 -20.4°
Drops below altitude 10° 19:30:43 10° 198° (SSW) 1,453 -0.9 -20.7°
Enters shadow 19:31:42 - 185° (S) 1,670 -0.7 -20.8°
